Weather History for Springfield, VT

Change the Weather History Date:

Saturday, January 19, 2013

  Actual Average Record
Temperature  
Mean Temperature 26 °F 19 °F  
Max Temperature 42 °F 29 °F 42 °F (2013)
Min Temperature 10 °F 9 °F -16 °F (1997)
Degree Days  
Heating Degree Days 39 46  
Month to date heating degree days 750 863  
Since 1 July heating degree days 3156 3726  
Moisture  
Dew Point 16 °F    
Average Humidity 58    
Maximum Humidity 80    
Minimum Humidity 36    
Precipitation  
Precipitation T in 0.07 in 0.09 in (2002)
Month to date precipitation 0.34 1.99  
Year to date precipitation 0.34 1.99  
Sea Level Pressure  
Sea Level Pressure 30.06 in    
Wind  
Wind Speed 1 mph (South)    
Max Wind Speed 9 mph    
Max Gust Speed 15 mph    
Visibility 9 miles    
Events Snow    
T = Trace of Precipitation, MM = Missing Value Source: NWS Daily Summary

Daily Weather History Graph

Daily Weather History Graph

Search for Another Location

Airport:

Trip Planner

Search our weather history database for the weather conditions in past years. The results will help you decide how hot, cold, wet, or windy it might be!

Date:

Astronomy

Jan. 19, 2013 Rise Set
Actual Time 7:17 AM EST 4:45 PM EST
Civil Twilight 6:45 AM EST 5:16 PM EST
Nautical Twilight 6:10 AM EST 5:51 PM EST
Astronomical Twilight 5:36 AM EST 6:25 PM EST
Moon 11:11 AM EST (1/19) 12:46 AM EST (1/19)
Length of Visible Light 10h 30m
Length of Day
9h 28m
First Quarter, 57% of the Moon is Illuminated
Jan 19
First Quarter
Jan 26
Full
Feb 3
Last Quarter
Feb 10
New
Feb 17
First Quarter

Hourly Weather History & Observations

Time (EST) Temp. Windchill Dew Point Humidity Pressure Visibility Wind Dir Wind Speed Gust Speed Precip Events Conditions
12:54 AM 12.9 °F - 5.0 °F 71% 30.30 in 10.0 mi Calm Calm - N/A   Overcast
1:54 AM 14.0 °F - 7.0 °F 74% 30.27 in 6.0 mi Calm Calm - N/A   Haze
2:54 AM 17.1 °F - 7.0 °F 65% 30.26 in 5.0 mi Calm Calm - 0.00 in Snow Light Snow
3:07 AM 15.8 °F - 8.6 °F 73% 30.21 in 2.5 mi Calm Calm - 0.00 in Snow Light Snow
3:24 AM 15.8 °F - 8.6 °F 73% 30.20 in 3.0 mi Calm Calm - 0.00 in Snow Light Snow
3:54 AM 17.1 °F - 10.0 °F 74% 30.22 in 10.0 mi Calm Calm - 0.00 in   Overcast
4:54 AM 17.1 °F - 9.0 °F 71% 30.18 in 10.0 mi Calm Calm - N/A   Mostly Cloudy
5:54 AM 18.0 °F - 10.9 °F 74% 30.16 in 10.0 mi Calm Calm - N/A   Overcast
6:54 AM 19.0 °F - 12.0 °F 74% 30.15 in 10.0 mi Calm Calm - N/A   Overcast
7:54 AM 17.1 °F - 12.0 °F 81% 30.14 in 10.0 mi Calm Calm - N/A   Clear
8:54 AM 21.0 °F - 12.9 °F 71% 30.13 in 10.0 mi Calm Calm - N/A   Mostly Cloudy
9:54 AM 26.1 °F - 12.0 °F 55% 30.11 in 10.0 mi Calm Calm - N/A   Clear
10:54 AM 28.9 °F 21.1 °F 15.1 °F 56% 30.07 in 10.0 mi South 8.1 mph - N/A   Clear
11:54 AM 33.1 °F 27.7 °F 16.0 °F 50% 30.01 in 10.0 mi South 5.8 mph - N/A   Mostly Cloudy
12:54 PM 37.0 °F - 18.0 °F 46% 29.98 in 10.0 mi Calm Calm - N/A   Overcast
1:54 PM 37.9 °F 35.5 °F 19.9 °F 48% 29.98 in 10.0 mi Variable 3.5 mph - N/A   Overcast
2:54 PM 42.1 °F 39.2 °F 18.0 °F 38% 29.97 in 10.0 mi Variable 4.6 mph - N/A   Overcast
3:54 PM 42.1 °F 38.4 °F 19.0 °F 40% 29.96 in 10.0 mi SW 5.8 mph - N/A   Overcast
4:54 PM 39.0 °F 34.8 °F 21.0 °F 49% 29.96 in 10.0 mi South 5.8 mph - N/A   Overcast
5:54 PM 35.1 °F - 23.0 °F 61% 29.96 in 10.0 mi Calm Calm - N/A   Overcast
6:54 PM 32.0 °F - 24.1 °F 73% 29.95 in 10.0 mi Calm Calm - N/A   Overcast
7:54 PM 30.9 °F - 24.1 °F 76% 29.94 in 10.0 mi Calm Calm - N/A   Clear
8:54 PM 28.9 °F - 23.0 °F 78% 29.93 in 10.0 mi Calm Calm - N/A   Clear
9:54 PM 30.0 °F - 23.0 °F 75% 29.89 in 8.0 mi Calm Calm - N/A   Clear
10:54 PM 30.0 °F - 23.0 °F 75% 29.85 in 10.0 mi Calm Calm - N/A   Clear
11:54 PM 30.0 °F - 24.1 °F 79% 29.82 in 10.0 mi Calm Calm - N/A   Overcast